{"data":{"norad_id":59339,"epoch":"2026-09-21T09:51:46.467936Z","epoch_age_seconds":83521,"freshness":"FRESH","line1":"1 59339U 24057V   26264.41095449 -.00000834  00000+0 -20798-4 0  9999","line2":"2 59339  43.0003 161.6061 0000344 285.6810  74.4003 15.27574854139776","mean_motion":15.27574854,"eccentricity":3.44e-5,"inclination_deg":43.0003,"raan_deg":161.6061,"arg_perigee_deg":285.681,"mean_anomaly_deg":74.4003,"bstar":-2.0798e-5,"rev_number":13977,"period_min":94.267066273664,"perigee_km":482.8284797264,"apogee_km":483.30053038995,"semimajor_km":6861.2015050582,"source":"CELESTRAK","updated_at":"2026-09-22T09:00:48.901883Z"}}